Regional Weather Roundup
Issued by NWS Albany, NY

Home | Current Version | Previous Version | Text Only | Print | Product List | Glossary On
Versions: 1 2 3 4 5 6 7 8 9 10 11 12 13 14 15 16 17 18 19 20 21 22 23 24 25 26 27 28 29 30 31 32 33 34 35 36 37 38 39 40 41 42 43 44 45 46 47 48 49 50
000
ASUS41 KALY 041310
RWRALY

NEW YORK STATE HOURLY WEATHER ROUNDUP
NATIONAL WEATHER SERVICE ALBANY NY
900 AM EDT FRI SEP 04 2015

NOTE: "FAIR" INDICATES FEW OR NO CLOUDS BELOW 12,000 FEET WITH NO
SIGNIFICANT WEATHER AND/OR NO OBSTRUCTIONS TO VISIBILITY.

NYZ032-033-038>043-046>054-057>066-NYZ062>081-041400-
EAST


CITY           SKY/WX    TMP DP  RH WIND       PRES   REMARKS
ALBANY         MOSUNNY   70  55  59 N7        30.11R
GLENS FALLS    SUNNY     68  54  60 N9        30.13R
POUGHKEEPSIE   MOSUNNY   73  60  63 N9        30.08R
NEWBURGH       MOSUNNY   73  63  68 NE8       30.09
MONTGOMERY     PTSUNNY   74  62  66 NE9       30.08R
WHITE PLAINS   PTSUNNY   73  67  81 NE7       30.05R
ISLIP          PTSUNNY   77  68  73 E12       30.02R
NEW YORK CITY  MOSUNNY   78  67  68 NE15G21   30.03R
CENTRAL PARK   SUNNY     79  67  66 NE8       30.06R
$$

NYZ005>009-017-018-044>046-055-056-041400-
CENTRAL


CITY           SKY/WX    TMP DP  RH WIND       PRES   REMARKS
FULTON         SUNNY     71  63  75 VRB3      30.10R
SYRACUSE       MOSUNNY   68  65  90 E8        30.09R
ROME           SUNNY     69  60  73 SE6       30.12R
ELMIRA         CLOUDY    71  69  93 CALM      30.09R FOG
BINGHAMTON     SUNNY     66  63  90 E3        30.12R
MONTICELLO     SUNNY     70  66  88 E6        30.12R
$$

NYZ026>034-041>043-041400-
NORTH


CITY           SKY/WX    TMP DP  RH WIND       PRES   REMARKS
WATERTOWN      SUNNY     64  57  78 NE12      30.12R
FORT DRUM      NOT AVBL
MASSENA        SUNNY     62  52  69 NE8       30.17R
SARANAC LAKE   SUNNY     61  48  62 CALM      30.16R
PLATTSBURGH    SUNNY     61  51  70 CALM      30.17R
$$

NYZ001>004-010>016-019>021-041400-
WEST


CITY           SKY/WX    TMP DP  RH WIND       PRES   REMARKS
NIAGARA FALLS  PTSUNNY   73  67  81 E13       30.07R
BUFFALO        MOSUNNY   72  67  84 NE8       30.07S
DUNKIRK        CLOUDY    75  69  81 SE7       30.06R
JAMESTOWN      CLOUDY    66  64  94 NE5       30.11S VSB<1/4
WELLSVILLE     FOG       67  65  93 E3        30.15R VSB 1/2
ROCHESTER      SUNNY     73  66  78 E8        30.10R
PENN YAN       CLOUDY    68  67  96 CALM      30.11R FOG
$$

             KEY
       WCI = WIND CHILL INDEX
       VSB = VISIBILITY
       HX  = HEAT INDEX
$$



USA.gov is the U.S. government's official web portal to all federal, state and local government web resources and services.